Theta_e
318 318 317 317 317 316 314 313 311 309 307 304 302 300 300 299 300 300 301 301 302 302 302 301 301 300 299 298 298 298 298 298 298 298 297 297 297 297 298 299 299 299 300 303 302 298 296 297 297 297 297 298
317 317 317 316 316 315 314 312 311 310 308 306 303 301 300 300 300 300 300 301 301 301 302 302 302 301 301 300 299 299 299 299 299 298 298 298 297 297 297 297 298 298 298 299 299 297 297 298 298 298 298 298
316 316 315 315 315 314 313 313 312 311 310 308 306 303 301 300 300 300 300 300 300 300 301 301 301 301 301 301 301 300 300 300 300 299 299 299 299 299 298 298 298 298 298 298 298 298 298 298 298 299 299 299
315 315 315 314 314 314 314 313 313 313 312 311 309 307 305 303 301 301 301 300 300 300 300 300 300 300 300 300 300 300 300 300 300 300 300 299 299 299 299 299 298 298 299 299 298 299 298 298 298 298 298 298
314 314 314 314 314 314 314 314 314 313 313 312 311 310 309 307 305 304 303 303 303 302 302 302 302 301 301 301 301 300 300 300 300 299 299 299 299 299 299 299 298 299 299 299 298 298 298 298 298 298 298 298
314 314 314 314 314 314 314 314 313 313 313 312 311 311 310 309 308 307 306 306 305 305 305 305 304 304 304 303 303 302 301 301 301 300 300 299 299 299 299 299 299 299 299 299 299 298 298 298 298 298 298 298
314 314 314 314 314 314 314 313 313 312 312 311 311 310 310 309 308 307 307 307 306 306 306 305 305 304 304 304 304 303 303 303 303 302 302 301 301 300 300 300 299 299 299 299 299 299 298 298 298 298 298 297
314 314 314 314 314 314 313 313 312 311 311 310 310 309 309 308 308 307 307 306 306 305 304 304 303 303 303 303 303 303 303 303 303 303 303 303 302 302 302 301 301 300 300 300 299 299 298 298 298 298 298 297
314 314 314 313 313 313 312 312 312 311 311 310 310 309 309 308 307 306 305 304 304 303 303 303 303 303 303 303 303 303 303 303 302 302 302 302 302 302 302 302 302 301 301 300 300 299 299 299 299 298 298 298
314 313 313 313 312 312 312 312 312 311 311 310 310 309 308 306 305 305 304 303 303 303 303 303 303 303 303 303 303 303 303 303 302 302 302 301 301 301 301 301 301 301 301 300 300 299 299 299 299 299 298 298
313 313 313 313 312 312 312 312 311 311 310 310 308 307 306 305 305 304 303 303 303 302 302 303 303 303 303 303 303 303 302 302 301 301 301 300 300 300 300 300 300 301 300 300 300 300 299 299 299 299 299 299
310 311 313 312 312 312 311 310 309 309 308 307 306 305 305 305 304 304 303 303 303 303 302 302 303 303 303 302 302 301 301 300 300 300 299 299 299 299 299 299 299 299 299 299 299 299 299 299 299 299 299 299
308 309 310 309 309 309 308 307 307 307 306 306 305 305 305 304 303 303 302 302 302 302 302 302 302 301 301 301 300 299 299 299 298 298 298 297 297 298 298 298 298 298 298 298 298 298 298 298 298 298 298 298
306 306 306 306 306 307 306 306 306 306 305 305 305 304 304 303 302 302 301 301 301 301 301 301 301 300 300 299 298 297 297 296 296 296 295 295 295 295 296 296 296 296 296 297 297 297 297 297 297 297 297 297
306 305 305 306 305 305 305 305 305 304 304 304 303 303 303 302 302 301 301 301 301 301 301 300 300 299 298 297 296 296 295 294 294 294 294 293 293 293 293 294 294 294 294 294 295 296 296 296 296 296 296 296
306 305 305 305 305 305 305 304 305 304 304 304 303 303 302 301 301 301 301 301 300 300 299 299 298 297 296 295 294 293 293 292 292 292 292 292 292 292 292 292 292 292 292 292 292 292 293 293 294 294 294 294
306 305 305 305 305 305 304 304 304 304 304 303 302 301 301 301 301 301 300 300 299 298 297 296 295 294 292 291 291 290 290 290 290 290 290 290 290 290 289 289 289 289 289 289 289 289 289 290 290 290 291 291
306 305 305 305 305 304 304 304 304 303 303 302 302 301 301 301 300 300 299 298 298 296 295 292 291 290 289 288 287 287 287 287 287 287 286 286 286 286 285 285 285 285 285 285 285 286 286 286 286 286 287 287
305 305 305 304 304 304 304 303 303 303 303 302 301 301 301 300 300 299 297 296 294 292 290 288 287 286 285 285 284 284 284 284 283 283 283 282 282 282 282 282 282 282 282 282 282 282 282 282 283 283 284 285
305 304 304 304 304 303 303 303 303 302 302 301 301 300 300 299 298 296 294 292 290 288 286 285 285 284 283 282 282 282 281 281 281 281 280 280 280 280 279 279 279 279 280 280 280 280 280 280 280 281 283 283
304 304 304 303 303 303 303 302 302 301 300 300 299 299 298 297 295 293 291 288 287 285 284 283 283 282 281 281 280 280 280 280 280 279 278 278 278 278 277 277 277 278 278 278 278 278 279 279 279 280 281 282
304 303 303 302 302 301 301 301 300 299 299 298 298 297 295 293 291 289 287 286 284 283 283 282 281 281 280 280 279 279 278 278 278 278 277 277 277 277 276 276 276 276 276 276 277 277 278 277 278 279 280 281
302 302 301 301 300 300 300 300 299 298 298 297 295 294 291 289 288 286 284 283 282 282 281 280 280 279 279 278 278 277 277 277 277 277 276 276 276 276 276 275 275 275 274 275 275 276 276 276 276 277 278 279
301 301 300 300 300 299 299 298 297 297 296 294 292 289 287 286 284 283 282 281 280 280 280 279 279 278 278 278 277 277 276 276 275 275 275 275 275 275 275 274 275 274 273 274 275 275 275 275 275 276 276 276
300 300 300 299 299 298 297 296 295 294 292 290 288 286 284 283 282 281 280 280 279 279 279 278 278 277 277 277 276 276 275 275 275 274 274 275 275 275 275 274 274 273 272 274 274 274 274 275 275 274 275 275
300 299 299 298 297 296 295 294 292 290 288 287 285 283 282 281 280 280 280 279 278 278 278 277 277 276 276 276 276 275 275 275 275 275 274 274 275 275 274 274 273 272 272 272 272 272 272 273 273 273 274 274
299 298 297 296 295 294 293 291 289 287 286 284 282 281 280 280 280 279 279 278 278 277 277 276 276 276 275 275 275 275 275 275 274 274 274 274 274 274 274 273 272 271 271 271 271 271 271 271 271 271 272 273
297 296 296 295 294 292 291 289 287 285 284 282 281 280 279 279 278 278 278 277 277 276 276 275 275 275 274 274 274 274 274 274 273 273 273 273 273 273 273 272 272 271 270 270 270 269 269 269 269 269 269 270
296 295 294 293 292 291 290 288 286 284 282 280 280 279 278 278 277 277 277 276 276 275 275 275 274 274 274 274 274 273 273 273 273 272 272 272 272 272 271 271 271 271 271 270 269 268 267 267 266 266 267 268
295 294 293 292 292 290 288 287 284 282 280 279 279 278 277 277 277 277 276 276 276 275 275 274 274 274 274 273 273 273 273 273 272 272 272 271 271 271 271 270 271 271 271 270 270 269 268 267 266 266 266 266
294 293 292 291 290 288 286 284 282 280 279 279 278 278 277 277 277 276 276 276 275 275 274 274 273 273 273 273 273 272 272 272 272 271 271 271 270 270 270 270 270 270 270 270 270 270 269 268 268 267 267 265
Wind_Speed
10 11 12 13 14 15 15 15 15 15 15 16 16 16 16 16 15 15 14 14 15 15 16 17 18 19 20 21 22 23 24 25 25 26 27 27 28 29 30 30 31 31 30 29 29 32 33 33 33 32 32 33
10 10 11 12 13 14 14 14 14 14 15 15 16 16 16 16 15 14 14 14 14 15 15 16 17 17 18 18 19 20 21 22 22 23 24 25 26 26 27 27 28 29 29 28 29 30 30 31 31 31 31 32
9 10 11 11 12 12 13 13 13 14 15 15 16 16 15 15 14 14 13 13 13 14 14 14 15 15 16 16 17 18 19 20 22 22 23 24 25 25 26 26 27 27 28 28 29 29 29 30 30 30 31 32
9 9 10 11 11 11 12 12 13 14 15 16 16 16 15 15 14 14 13 13 13 14 14 14 15 15 16 17 18 19 20 21 22 23 24 25 25 26 27 27 28 28 29 29 29 29 30 29 30 30 31 32
9 9 10 10 11 11 11 12 13 15 16 17 17 17 16 16 15 15 15 15 16 16 17 18 18 18 19 19 20 21 22 23 23 24 25 26 27 28 28 29 30 30 30 30 30 30 30 30 30 31 31 32
10 10 10 10 10 10 11 12 14 16 17 18 18 19 18 18 18 18 18 19 20 20 21 21 22 22 22 23 23 24 25 26 26 26 27 27 28 28 29 29 30 31 31 31 31 31 31 32 32 32 32 33
11 11 11 11 11 11 12 14 16 17 19 19 20 20 20 19 19 20 20 21 22 23 23 23 24 24 24 25 25 26 27 28 29 29 30 30 30 30 30 30 30 31 31 31 31 32 32 33 34 34 34 35
11 11 12 12 12 13 13 15 17 18 18 18 19 18 18 18 18 19 20 21 22 23 24 24 24 25 25 26 27 28 29 30 30 31 32 32 33 33 33 33 33 33 33 32 32 32 33 33 34 35 36 36
10 10 10 11 11 12 13 14 14 14 13 13 16 17 17 17 18 19 20 21 22 23 23 24 25 27 28 29 30 32 32 33 33 33 33 33 34 34 35 35 35 35 34 34 33 32 32 33 34 35 36 36
9 9 8 8 9 10 10 9 9 9 11 13 15 16 16 17 18 19 19 21 21 22 24 25 26 28 30 31 33 34 34 35 34 34 34 34 34 34 34 35 35 35 34 34 33 32 31 31 33 34 35 36
9 9 8 9 9 8 8 7 8 9 11 13 15 14 15 16 17 18 19 20 21 22 23 24 26 28 30 32 34 35 35 36 35 35 35 34 34 34 34 35 35 34 33 33 32 31 30 30 31 32 34 35
7 7 7 7 7 6 7 7 8 9 11 13 13 13 14 15 17 18 19 20 21 21 22 24 25 27 29 31 33 34 35 36 36 36 35 36 36 36 36 35 35 34 33 31 30 30 30 29 30 31 32 33
6 4 4 4 5 5 5 7 8 9 10 11 12 12 13 14 16 17 18 19 20 21 22 24 26 27 29 30 32 33 34 35 35 36 36 36 37 37 37 36 36 35 34 32 30 29 29 29 29 30 30 30
7 5 5 5 5 5 5 7 8 9 9 10 11 12 12 14 15 17 18 19 21 23 25 26 28 29 31 32 33 34 35 35 35 35 35 35 35 35 36 35 35 35 34 33 31 30 30 30 29 30 30 30
6 5 6 6 5 5 6 7 7 8 8 9 10 11 12 15 17 19 21 22 24 26 27 29 30 32 33 34 34 35 35 35 34 34 33 33 33 33 34 33 33 34 33 32 32 32 32 33 33 32 32 31
5 5 5 4 4 5 5 6 7 8 9 10 11 12 15 17 20 22 23 25 27 28 29 31 32 33 33 33 33 33 33 33 33 33 32 32 32 33 33 33 33 33 32 32 31 31 32 33 34 34 34 34
4 4 3 3 4 5 6 7 8 9 11 12 13 15 18 20 22 24 26 27 29 30 31 32 32 32 32 32 32 32 31 32 32 32 33 33 32 33 33 34 34 34 33 33 32 32 31 31 32 32 33 32
3 3 3 5 6 7 7 9 10 11 12 13 15 19 21 23 25 27 28 30 31 31 32 32 32 31 31 31 31 31 32 32 32 32 33 33 33 33 33 34 34 34 34 33 33 32 32 31 31 31 29 25
3 3 4 6 6 7 9 10 12 13 15 17 20 22 24 26 27 29 30 31 31 31 31 31 31 32 32 31 31 31 32 32 32 32 32 33 34 34 33 33 34 34 34 34 33 33 32 31 30 27 23 20
2 3 4 6 7 9 10 12 14 16 18 20 22 24 25 27 28 29 30 30 31 30 31 32 32 32 32 31 32 32 32 32 32 33 32 33 33 34 34 34 35 35 35 35 34 33 32 30 28 23 18 17
2 4 6 8 9 11 12 14 16 18 19 20 23 25 26 27 28 29 30 30 31 32 33 33 32 32 32 32 33 33 34 34 34 34 35 34 34 34 35 35 36 36 37 36 35 33 32 30 25 19 17 17
3 5 7 9 11 12 14 16 17 18 19 21 23 25 27 28 29 29 30 31 31 32 32 32 32 32 33 34 34 35 36 36 36 36 36 36 35 35 35 37 38 38 38 37 36 34 32 29 23 18 17 18
4 6 7 9 12 13 16 17 18 19 21 23 24 26 27 27 28 29 30 31 31 31 32 32 33 33 33 34 34 35 35 36 36 36 36 36 36 35 34 36 37 38 39 39 37 36 34 29 22 18 17 18
5 7 9 11 13 15 17 18 19 20 21 23 25 26 26 27 28 29 30 31 31 32 32 32 32 32 32 33 33 34 35 36 37 37 37 37 37 37 35 35 36 38 39 39 39 37 35 30 24 22 21 24
8 10 12 13 15 17 18 19 20 21 22 24 24 25 26 28 30 31 31 31 31 31 31 31 31 31 32 33 34 35 35 36 36 37 37 37 37 37 37 37 38 40 39 41 43 42 39 32 26 24 26 32
10 13 14 16 17 18 19 20 22 23 24 24 24 26 28 30 31 30 31 30 30 30 30 30 31 32 33 33 34 34 34 34 34 36 37 38 38 37 37 37 38 40 40 43 44 42 41 35 30 27 30 37
12 14 15 16 17 18 19 20 21 22 23 25 26 28 28 29 29 29 29 29 29 30 31 32 32 33 33 33 34 33 34 35 35 37 37 38 39 39 38 37 37 39 39 41 41 41 37 30 32 33 38 44
13 14 14 15 15 16 18 19 20 22 24 26 27 28 28 29 29 29 29 29 30 31 31 31 31 31 32 33 33 34 35 36 37 38 38 38 39 39 39 38 37 36 36 37 38 40 33 23 24 28 39 49
12 12 12 13 14 16 18 20 21 24 26 27 27 28 29 29 28 29 29 30 30 30 30 30 30 31 32 33 33 34 35 36 36 36 36 37 37 37 37 37 36 34 34 34 33 34 28 19 18 24 36 40
11 11 13 15 18 20 21 23 24 25 26 26 26 26 26 26 27 28 28 28 28 27 28 29 30 32 32 33 34 34 34 34 34 34 34 35 35 35 34 34 35 34 33 32 31 30 26 19 17 27 35 30
12 14 16 18 20 21 22 23 24 24 23 23 24 23 23 24 25 26 26 26 26 27 28 29 30 31 32 32 32 32 32 32 32 32 32 32 32 33 32 33 34 35 34 33 31 30 27 25 22 26 29 26
Wind_Direction
355 354 353 352 352 353 353 353 356 358 360 0 2 3 2 0 356 351 345 339 334 330 326 322 320 318 316 315 314 313 312 311 311 310 309 308 308 307 307 306 305 305 305 303 304 307 309 309 309 309 309 306
356 355 354 354 355 356 356 358 360 1 2 3 6 7 8 8 5 1 354 348 342 337 332 328 325 323 322 320 318 317 315 314 314 314 313 313 312 311 310 309 308 307 306 305 305 307 308 308 307 307 306 303
359 357 356 357 357 358 360 2 3 3 3 3 5 7 9 10 9 7 1 355 350 345 339 334 330 327 325 323 323 322 320 319 318 318 317 316 315 314 313 312 311 309 307 306 306 307 306 306 306 304 302 302
360 357 355 356 357 359 1 3 4 3 3 2 2 2 4 6 6 5 1 357 351 347 342 337 333 330 328 326 326 326 322 320 319 318 318 316 316 314 313 312 311 309 307 307 307 307 307 307 306 303 303 304
357 354 352 352 352 356 1 3 4 4 3 1 359 358 358 0 360 358 355 351 346 344 341 338 336 331 328 326 325 324 321 318 316 316 316 315 314 313 311 311 310 308 307 307 306 306 306 307 305 304 304 305
352 350 348 349 349 356 1 4 5 4 2 358 356 355 356 356 355 353 350 347 344 341 339 336 334 331 328 326 324 321 318 315 313 312 311 309 308 307 306 306 306 305 304 304 303 305 306 306 306 306 306 306
349 350 351 354 358 3 6 7 6 3 0 357 354 353 354 354 352 350 347 345 342 339 338 337 336 334 332 330 327 323 319 316 313 311 309 307 304 303 302 301 301 300 301 301 302 304 305 306 307 307 307 307
349 353 359 5 7 10 11 9 7 5 2 357 349 346 349 348 346 344 343 343 343 343 344 344 343 341 339 337 334 329 327 324 320 317 313 310 307 305 303 301 300 299 299 299 300 302 304 305 307 307 307 306
350 354 2 7 10 14 16 13 10 4 355 345 337 337 339 340 341 343 345 348 348 349 348 348 347 345 343 341 338 335 332 329 326 323 320 316 313 310 306 304 302 301 300 300 300 302 303 305 306 306 304 303
347 348 356 359 7 14 14 12 3 347 334 329 329 332 337 341 344 347 348 350 349 349 348 348 347 345 342 339 337 334 330 328 326 323 321 318 315 312 308 305 302 300 300 300 300 300 303 305 305 303 302 301
345 343 348 350 356 360 354 347 335 329 327 325 329 336 341 344 346 347 347 348 348 347 346 345 342 340 337 334 332 329 327 325 322 320 318 316 312 310 307 304 301 299 298 299 299 299 300 301 302 301 300 300
359 352 346 345 345 350 342 335 334 333 330 329 339 345 343 344 344 344 345 345 344 342 339 337 334 332 330 327 326 324 322 320 318 317 315 313 311 309 308 305 303 301 300 299 300 301 301 302 302 301 300 300
52 38 25 19 11 9 349 344 348 341 334 336 342 341 338 341 341 341 340 339 337 333 331 329 327 325 324 324 322 321 320 319 317 315 314 313 311 311 309 308 307 305 304 302 302 302 302 303 302 301 301 300
74 70 60 50 36 15 354 351 348 338 338 339 338 338 340 341 337 335 334 333 331 329 328 327 325 324 325 325 324 323 322 321 320 319 318 316 314 313 312 311 310 308 307 305 303 302 302 302 302 302 302 301
82 70 53 46 33 10 2 354 342 340 343 343 344 345 342 338 335 333 332 332 330 329 328 327 326 326 326 325 325 325 325 325 325 324 323 321 320 319 318 317 314 313 311 308 305 302 301 302 303 303 303 304
91 78 62 50 27 13 6 351 344 346 348 349 351 347 340 336 334 332 331 331 330 329 328 328 327 327 327 328 329 329 329 328 327 325 324 322 322 321 321 320 319 319 318 316 314 310 307 305 305 305 306 307
86 75 59 31 10 5 357 348 347 346 349 350 347 342 338 334 332 332 332 331 330 330 330 330 330 331 332 334 335 335 333 330 329 328 326 324 324 325 324 324 324 324 324 324 323 322 320 318 317 316 314 315
61 40 16 4 357 355 350 346 346 346 347 343 339 338 334 332 333 333 333 332 332 332 333 334 336 339 340 341 341 338 336 335 334 334 333 332 332 333 332 332 332 331 331 331 330 329 329 329 329 327 328 332
44 22 3 358 353 350 349 346 345 343 341 338 335 334 332 333 333 333 335 335 336 337 339 342 344 345 346 346 344 342 340 341 341 341 341 342 341 341 340 338 338 337 336 336 336 336 336 336 336 335 341 343
34 15 1 357 353 351 348 344 341 340 339 336 333 331 331 333 334 336 338 339 341 344 347 349 350 350 350 350 348 347 347 348 350 350 351 352 351 350 348 347 346 343 342 342 342 344 343 343 342 343 345 337
6 4 1 355 351 348 342 339 339 339 337 333 332 332 333 335 337 340 341 344 348 350 352 353 353 354 355 354 354 354 354 357 360 0 360 359 1 0 356 354 353 350 350 350 350 350 349 349 351 352 343 331
1 359 355 348 347 342 337 338 340 339 336 336 336 335 338 341 342 344 346 350 353 355 356 356 358 360 360 0 1 2 2 4 5 5 4 2 4 5 1 358 358 356 355 355 354 353 355 357 1 356 343 335
11 357 349 347 346 339 336 339 342 341 338 339 341 342 345 346 347 351 355 357 359 360 1 3 5 5 5 6 6 6 5 6 6 5 5 5 5 6 7 2 360 0 357 355 355 356 359 3 4 359 350 345
6 349 346 347 342 337 340 343 344 343 342 345 348 350 350 352 356 2 4 5 6 8 8 9 9 9 9 9 9 8 9 9 10 8 7 9 8 6 9 6 3 4 359 354 355 356 0 3 4 2 357 354
349 345 346 346 345 346 349 349 347 348 351 353 354 356 358 2 8 10 11 12 12 12 12 12 11 11 12 13 13 13 13 12 12 11 8 8 9 8 9 8 7 6 360 356 357 357 358 1 4 2 355 355
350 353 355 354 354 356 355 353 354 356 358 359 1 5 9 11 13 13 14 15 14 13 14 15 14 15 15 15 15 14 13 12 11 11 9 7 8 8 10 11 10 8 3 2 1 357 357 358 358 356 352 355
2 4 3 359 359 358 355 356 360 360 2 5 10 14 15 15 15 15 15 16 16 16 18 18 18 18 17 16 15 14 13 13 13 12 11 9 8 6 8 11 12 10 8 6 1 358 359 356 350 348 348 352
11 9 4 0 359 357 356 0 3 4 8 12 15 17 18 18 19 19 18 20 21 22 21 21 20 19 19 18 17 16 15 15 15 13 11 10 9 7 6 8 11 11 11 10 8 5 0 352 350 348 344 346
16 9 3 0 358 358 359 2 6 10 16 19 19 21 22 23 22 22 22 23 23 23 22 22 22 21 20 19 18 17 17 15 15 13 11 9 8 8 7 5 7 8 10 12 14 15 10 358 347 340 341 343
11 4 1 1 360 1 3 7 13 18 21 23 24 25 24 23 23 23 23 23 22 22 23 24 23 22 20 19 18 17 16 15 13 11 11 10 8 8 7 5 4 5 7 9 11 16 16 10 349 340 346 346
8 4 5 5 5 8 11 16 23 26 27 27 27 26 25 24 24 24 23 23 23 23 25 25 24 23 21 19 18 17 14 14 14 12 11 11 9 8 6 5 5 4 3 4 6 9 8 5 359 354 355 350